Page, AZ

12:17 AM MDT on September 26, 2017 (GMT -0600)
Page Municipal

Weather History for KPGA - July, 2013

Change the Weather History Date:

Monday, July 8, 2013

  Actual Average Record
Temperature  
Mean Temperature 86 °F -  
Max Temperature 100 °F 95 °F 106 °F (1976)
Min Temperature 71 °F 68 °F 59 °F (1969)
Cooling Degree Days 20    
Growing Degree Days 36 (Base 50)    
Moisture  
Dew Point 46 °F    
Average Humidity 26    
Maximum Humidity 51    
Minimum Humidity 6    
Precipitation  
Precipitation 0.00 in - - ()
Sea Level Pressure  
Sea Level Pressure 29.85 in    
Wind  
Wind Speed 4 mph (NNW)    
Max Wind Speed 9 mph    
Max Gust Speed -    
Visibility 10 miles    
Events      
Averages and records for this station are not official NWS values.
T = Trace of Precipitation, MM = Missing Value Source: NWS Daily Summary

Daily Weather History Graph

Daily Weather History Graph

Search for Another Location

Airport or City:

Trip Planner

Search our weather history database for the weather conditions in past years. The results will help you decide how hot, cold, wet, or windy it might be!

Date:

Astronomy

Jul. 08, 2013 Rise Set
Actual Time 5:13 AM MST 7:47 PM MST
Civil Twilight 4:43 AM MST 8:18 PM MST
Nautical Twilight 4:05 AM MST 8:55 PM MST
Astronomical Twilight 3:23 AM MST 9:37 PM MST
Moon 5:44 AM MST (7/8) 7:55 PM MST (7/8)
Length of Visible Light 15h 34m
Length of Day
14h 33m
New Moon, 0% of the Moon is Illuminated
Jul 8
New Moon
Jul 15
First Quarter
Jul 22
Full
Jul 29
Last Quarter
Aug 6
New

Hourly Weather History & Observations

Time (MST) Temp. Dew Point Humidity Pressure Visibility Wind Dir Wind Speed Gust Speed Precip Events Conditions
12:53 AM 77.0 °F 52.0 °F 42% 29.83 in 10.0 mi North - - N/A   Clear
1:53 AM 78.1 °F 53.1 °F 42% 29.83 in 10.0 mi North - - N/A   Clear
2:53 AM 77.0 °F 51.1 °F 40% 29.85 in 10.0 mi North - - N/A   Clear
3:53 AM 73.9 °F 51.1 °F 45% 29.87 in 10.0 mi North - - N/A   Clear
4:53 AM 73.0 °F 52.0 °F 48% 29.88 in 10.0 mi North - - N/A   Clear
5:53 AM 72.0 °F 53.1 °F 51% 29.90 in 10.0 mi North - - N/A   Clear
6:53 AM 75.9 °F 53.1 °F 45% 29.91 in 10.0 mi North - - N/A   Clear
7:53 AM 80.1 °F 52.0 °F 38% 29.92 in 10.0 mi Variable 3.5 mph - N/A   Clear
8:53 AM 82.9 °F 51.1 °F 33% 29.92 in 10.0 mi Variable 4.6 mph - N/A   Clear
9:53 AM 86.0 °F 52.0 °F 31% 29.92 in 10.0 mi NNW 5.8 mph - N/A   Clear
10:53 AM 90.0 °F 52.0 °F 27% 29.91 in 10.0 mi North 6.9 mph - N/A   Clear
11:53 AM 93.0 °F 52.0 °F 25% 29.88 in 10.0 mi North 4.6 mph - N/A   Clear
12:53 PM 96.1 °F 50.0 °F 21% 29.86 in 10.0 mi Variable 5.8 mph - N/A   Clear
1:53 PM 100.0 °F 44.1 °F 15% 29.83 in 10.0 mi North 9.2 mph - N/A   Clear
2:53 PM 98.1 °F 42.1 °F 15% 29.81 in 10.0 mi Variable 3.5 mph - N/A   Clear
3:53 PM 97.0 °F 39.9 °F 14% 29.80 in 10.0 mi Variable 3.5 mph - N/A   Clear
4:53 PM 100.0 °F 39.0 °F 12% 29.78 in 10.0 mi NNE 3.5 mph - N/A   Clear
5:53 PM 97.0 °F 37.9 °F 13% 29.78 in 10.0 mi Calm Calm - N/A   Clear
6:53 PM 93.9 °F 43.0 °F 17% 29.79 in 10.0 mi Calm Calm - N/A   Clear
7:53 PM 91.9 °F 41.0 °F 17% 29.81 in 10.0 mi NW 3.5 mph - N/A   Clear
8:53 PM 89.1 °F 37.0 °F 16% 29.83 in 10.0 mi Calm Calm - N/A   Clear
9:53 PM 90.0 °F 34.0 °F 14% 29.84 in 10.0 mi WSW 3.5 mph - N/A   Clear
10:53 PM 88.0 °F 34.0 °F 15% 29.85 in 10.0 mi WNW 3.5 mph - N/A   Clear
11:53 PM 88.0 °F 32.0 °F 14% 29.86 in 10.0 mi NW 3.5 mph - N/A   Clear